LAN1535 SCEL-SCIP

Flight info

Callsign LAN1535
Flight time 2h 4m
Altitude 34000
Route DGO UL348 TOGUP/N0453F360 UL348 ASALA ASALA2A
Aircraft A320/M-SDE3FGHIRWY/LB1

Departure

Time 2026-05-04 06:44
Airport Comodoro Arturo Merino Benítez International Airport (SCEL)

Arrival

Time 2026-05-04 08:48
Airport Mataveri International Airport (SCIP)
Time Latitude Longitude Altitude Speed Heading
2026-05-04 06:40 -33.40591 -70.80038 1568 ft 0 kts 267°
2026-05-04 06:40 -33.40591 -70.80040 1568 ft 1 kts 267°
2026-05-04 06:41 -33.40592 -70.80061 1569 ft 3 kts 267°
2026-05-04 06:41 -33.40594 -70.80090 1571 ft 3 kts 267°
2026-05-04 06:41 -33.40595 -70.80109 1572 ft 3 kts 267°
2026-05-04 06:41 -33.40596 -70.80145 1574 ft 6 kts 267°
2026-05-04 06:42 -33.40579 -70.80193 1574 ft 7 kts 339°
2026-05-04 06:42 -33.40521 -70.80196 1574 ft 13 kts 358°
2026-05-04 06:42 -33.40304 -70.80207 1574 ft 62 kts 357°
2026-05-04 06:44 -33.31938 -70.80815 3888 ft 222 kts 358°
2026-05-04 06:44 -33.30323 -70.80868 4132 ft 244 kts 359°
2026-05-04 06:44 -33.28546 -70.80923 4515 ft 264 kts 359°
2026-05-04 06:45 -33.26684 -70.80993 5223 ft 270 kts 358°
2026-05-04 06:45 -33.24800 -70.81080 6041 ft 271 kts 357°
2026-05-04 06:45 -33.22908 -70.81175 6833 ft 273 kts 357°
2026-05-04 06:45 -33.21011 -70.81275 7603 ft 273 kts 357°
2026-05-04 06:46 -33.19107 -70.81378 8356 ft 275 kts 356°
2026-05-04 06:46 -33.17196 -70.81481 9121 ft 275 kts 356°
2026-05-04 06:46 -33.15281 -70.81586 9885 ft 276 kts 356°
2026-05-04 06:46 -33.13338 -70.81694 10332 ft 289 kts 356°
2026-05-04 06:48 -32.98628 -70.77579 13165 ft 375 kts 65°
2026-05-04 06:48 -32.98131 -70.74500 13673 ft 387 kts 90°
2026-05-04 06:49 -32.98748 -70.71328 14092 ft 393 kts 116°
2026-05-04 06:50 -33.15373 -70.66482 17698 ft 368 kts 217°
2026-05-04 06:51 -33.17334 -70.68373 18282 ft 359 kts 233°
2026-05-04 06:51 -33.18705 -70.70821 18804 ft 353 kts 249°
2026-05-04 06:51 -33.19479 -70.73585 19308 ft 351 kts 256°
2026-05-04 06:51 -33.19556 -70.73911 19367 ft 351 kts 256°
2026-05-04 06:52 -33.20015 -70.75842 19713 ft 351 kts 256°
2026-05-04 06:52 -33.20678 -70.78654 20212 ft 353 kts 256°
2026-05-04 06:52 -33.21346 -70.81481 20701 ft 354 kts 256°
2026-05-04 06:52 -33.22017 -70.84313 21182 ft 355 kts 256°
2026-05-04 06:53 -33.22690 -70.87157 21660 ft 356 kts 256°
2026-05-04 06:53 -33.23354 -70.89969 22099 ft 357 kts 255°
2026-05-04 06:53 -33.24028 -70.92836 22556 ft 359 kts 255°
2026-05-04 06:53 -33.24704 -70.95709 22971 ft 360 kts 255°
2026-05-04 06:54 -33.25385 -70.98594 23383 ft 362 kts 255°
2026-05-04 06:54 -33.26071 -71.01496 23771 ft 364 kts 255°
2026-05-04 06:54 -33.26759 -71.04410 24134 ft 365 kts 255°
2026-05-04 06:54 -33.27447 -71.07334 24467 ft 366 kts 255°
2026-05-04 06:55 -33.28136 -71.10272 24802 ft 368 kts 255°
2026-05-04 06:55 -33.28828 -71.13223 25133 ft 369 kts 255°
2026-05-04 06:55 -33.29520 -71.16178 25432 ft 370 kts 255°
2026-05-04 06:55 -33.30205 -71.19112 25750 ft 372 kts 255°
2026-05-04 06:56 -33.30911 -71.22137 26085 ft 374 kts 255°
2026-05-04 06:57 -33.35834 -71.43364 28347 ft 382 kts 255°
2026-05-04 06:58 -33.36544 -71.46430 28703 ft 383 kts 255°
2026-05-04 06:58 -33.37256 -71.49510 28984 ft 384 kts 255°
2026-05-04 06:58 -33.37966 -71.52593 29328 ft 385 kts 256°
2026-05-04 06:58 -33.38669 -71.55646 29626 ft 386 kts 256°
2026-05-04 06:59 -33.39386 -71.58747 29876 ft 388 kts 256°
2026-05-04 06:59 -33.40106 -71.61868 30117 ft 390 kts 256°
2026-05-04 06:59 -33.40827 -71.65002 30345 ft 392 kts 256°
2026-05-04 06:59 -33.41552 -71.68156 30570 ft 393 kts 256°
2026-05-04 07:01 -33.46539 -71.89990 32771 ft 385 kts 256°
2026-05-04 07:01 -33.47248 -71.93120 33063 ft 385 kts 256°
2026-05-04 07:02 -33.47938 -71.96174 33322 ft 385 kts 256°
2026-05-04 07:02 -33.48636 -71.99271 33610 ft 384 kts 256°
2026-05-04 07:02 -33.49323 -72.02357 33919 ft 383 kts 256°
2026-05-04 07:02 -33.49964 -72.05459 34045 ft 382 kts 257°
2026-05-04 07:03 -33.51133 -72.11638 34064 ft 379 kts 258°
2026-05-04 07:03 -33.52257 -72.17813 34067 ft 379 kts 258°
2026-05-04 07:04 -33.54749 -72.31077 34079 ft 381 kts 258°
2026-05-04 07:04 -33.59393 -72.55904 34034 ft 380 kts 258°
2026-05-04 07:05 -33.63993 -72.80783 34068 ft 383 kts 258°
2026-05-04 07:05 -33.67518 -73.05752 34088 ft 382 kts 270°
2026-05-04 07:06 -33.67581 -73.44174 34067 ft 383 kts 270°
2026-05-04 07:07 -33.67582 -73.69775 34056 ft 383 kts 270°
2026-05-04 07:09 -33.67016 -74.68432 34067 ft 388 kts 271°
2026-05-04 07:09 -33.66729 -74.94344 34068 ft 388 kts 271°
2026-05-04 07:10 -33.65183 -75.20181 34080 ft 388 kts 275°
2026-05-04 07:12 -33.57040 -76.23593 34071 ft 391 kts 276°
2026-05-04 07:12 -33.54876 -76.49534 34067 ft 391 kts 276°
2026-05-04 07:13 -33.52615 -76.75460 34079 ft 391 kts 277°
2026-05-04 07:13 -33.50352 -77.01365 34053 ft 391 kts 277°
2026-05-04 07:14 -33.44378 -77.66351 34091 ft 392 kts 277°
2026-05-04 07:15 -33.41890 -77.92240 34075 ft 391 kts 277°
2026-05-04 07:15 -33.39362 -78.18054 34067 ft 390 kts 278°
2026-05-04 07:16 -33.36791 -78.43838 34067 ft 390 kts 278°
2026-05-04 07:16 -33.34144 -78.69628 34081 ft 390 kts 278°
2026-05-04 07:17 -33.31485 -78.95229 34078 ft 390 kts 278°
2026-05-04 07:17 -33.28747 -79.20950 34081 ft 390 kts 278°
2026-05-04 07:18 -33.25967 -79.46633 34075 ft 389 kts 278°
2026-05-04 07:18 -33.23121 -79.72287 34057 ft 390 kts 278°
2026-05-04 07:19 -33.20218 -79.97944 34071 ft 390 kts 279°
2026-05-04 07:19 -33.18179 -80.23735 34079 ft 390 kts 277°
2026-05-04 07:20 -33.16122 -80.49488 34069 ft 390 kts 277°
2026-05-04 07:20 -33.14031 -80.75248 34067 ft 390 kts 277°
2026-05-04 07:22 -33.05079 -81.78587 34071 ft 392 kts 277°
2026-05-04 07:23 -33.02704 -82.04388 34063 ft 391 kts 278°
2026-05-04 07:23 -33.00304 -82.30009 34060 ft 391 kts 278°
2026-05-04 07:24 -32.97823 -82.55833 34068 ft 392 kts 278°
2026-05-04 07:24 -32.95277 -82.81678 34076 ft 393 kts 278°
2026-05-04 07:26 -32.84591 -83.84992 34050 ft 394 kts 279°
2026-05-04 07:27 -32.81785 -84.10795 34064 ft 393 kts 279°
2026-05-04 07:27 -32.78942 -84.36497 34054 ft 391 kts 279°
2026-05-04 07:28 -32.76030 -84.62134 34074 ft 393 kts 279°
2026-05-04 07:28 -32.73055 -84.88037 34059 ft 395 kts 279°
2026-05-04 07:29 -32.70062 -85.13775 34050 ft 392 kts 279°
2026-05-04 07:29 -32.67033 -85.39394 34037 ft 391 kts 279°
2026-05-04 07:30 -32.63985 -85.64781 34035 ft 390 kts 279°
2026-05-04 07:30 -32.60857 -85.90243 34020 ft 390 kts 279°
2026-05-04 07:31 -32.57688 -86.15695 34019 ft 390 kts 279°
2026-05-04 07:33 -32.44469 -87.17639 34013 ft 391 kts 280°
2026-05-04 07:33 -32.41065 -87.42860 34002 ft 390 kts 281°
2026-05-04 07:34 -32.37593 -87.68193 34000 ft 390 kts 281°
2026-05-04 07:34 -32.34074 -87.93460 34002 ft 389 kts 281°
2026-05-04 07:35 -32.30502 -88.18776 33998 ft 391 kts 281°
2026-05-04 07:35 -32.26871 -88.44087 33978 ft 389 kts 281°
2026-05-04 07:36 -32.23191 -88.69334 34010 ft 393 kts 281°
2026-05-04 07:38 -32.12462 -89.41074 34937 ft 389 kts 281°
2026-05-04 07:38 -32.10540 -89.53630 34934 ft 387 kts 281°
2026-05-04 07:38 -32.06654 -89.78682 34998 ft 388 kts 281°
2026-05-04 07:39 -32.02715 -90.03878 34965 ft 391 kts 281°
2026-05-04 07:39 -31.98772 -90.29048 34948 ft 390 kts 281°
2026-05-04 07:40 -31.94812 -90.54009 34955 ft 390 kts 281°
2026-05-04 07:40 -31.90766 -90.79073 34943 ft 389 kts 282°
2026-05-04 07:41 -31.86675 -91.04091 34930 ft 389 kts 282°
2026-05-04 07:41 -31.82539 -91.29047 34949 ft 388 kts 282°
2026-05-04 07:42 -31.78386 -91.53918 34893 ft 388 kts 282°
2026-05-04 07:42 -31.74146 -91.78958 34947 ft 391 kts 282°
2026-05-04 07:43 -31.69865 -92.03873 34945 ft 388 kts 282°
2026-05-04 07:43 -31.65566 -92.28618 34927 ft 386 kts 282°
2026-05-04 07:44 -31.61230 -92.53223 34922 ft 384 kts 283°
2026-05-04 07:44 -31.56876 -92.77755 34930 ft 383 kts 283°
2026-05-04 07:45 -31.52475 -93.02206 34918 ft 382 kts 283°
2026-05-04 07:45 -31.48025 -93.26597 34879 ft 385 kts 283°
2026-05-04 07:46 -31.44176 -93.47524 35498 ft 380 kts 283°
2026-05-04 07:46 -31.43622 -93.50551 35747 ft 379 kts 283°
2026-05-04 07:46 -31.43068 -93.53537 35894 ft 382 kts 283°
2026-05-04 07:47 -31.41929 -93.59632 35933 ft 384 kts 283°
2026-05-04 07:49 -31.34948 -93.96856 35934 ft 383 kts 283°
2026-05-04 07:49 -31.30328 -94.21176 35940 ft 383 kts 283°
2026-05-04 07:50 -31.25666 -94.45433 35930 ft 382 kts 283°
2026-05-04 07:50 -31.20974 -94.69583 35937 ft 381 kts 282°
2026-05-04 07:51 -31.16246 -94.93674 35930 ft 380 kts 283°
2026-05-04 07:51 -31.11402 -95.17647 35937 ft 379 kts 283°
2026-05-04 07:52 -31.06562 -95.41433 35959 ft 378 kts 283°
2026-05-04 07:52 -31.01652 -95.65192 35949 ft 375 kts 283°
2026-05-04 07:54 -30.82603 -96.55435 35968 ft 374 kts 282°
2026-05-04 07:55 -30.76713 -96.82675 35938 ft 374 kts 282°
2026-05-04 07:55 -30.71563 -97.06223 35970 ft 377 kts 281°
2026-05-04 07:56 -30.67190 -97.26040 35983 ft 378 kts 281°
2026-05-04 07:56 -30.61949 -97.49668 35989 ft 378 kts 281°
2026-05-04 07:57 -30.56654 -97.73272 36000 ft 377 kts 281°
2026-05-04 07:57 -30.51370 -97.96647 36001 ft 376 kts 281°
2026-05-04 07:58 -30.45996 -98.20099 36011 ft 375 kts 280°
2026-05-04 07:58 -30.40631 -98.43471 35970 ft 376 kts 280°
2026-05-04 07:59 -30.35124 -98.67101 36041 ft 381 kts 280°
2026-05-04 07:59 -30.29605 -98.90693 36012 ft 378 kts 280°
2026-05-04 08:00 -30.24031 -99.14188 36014 ft 379 kts 279°
2026-05-04 08:02 -30.01348 -100.08143 36043 ft 380 kts 279°
2026-05-04 08:02 -29.95538 -100.31822 36088 ft 386 kts 279°
2026-05-04 08:03 -29.89715 -100.55389 36068 ft 383 kts 279°
2026-05-04 08:03 -29.83836 -100.78974 36067 ft 383 kts 279°
2026-05-04 08:04 -29.77887 -101.02551 36074 ft 383 kts 279°
2026-05-04 08:04 -29.71928 -101.26133 36074 ft 383 kts 279°
2026-05-04 08:05 -29.65916 -101.49667 36072 ft 384 kts 279°
2026-05-04 08:05 -29.59838 -101.73225 36068 ft 385 kts 280°
2026-05-04 08:06 -29.53637 -101.97137 36050 ft 391 kts 280°
2026-05-04 08:06 -29.47352 -102.21096 36102 ft 393 kts 280°
2026-05-04 08:08 -29.21689 -103.17168 36104 ft 395 kts 281°
2026-05-04 08:11 -28.91704 -104.25748 36131 ft 401 kts 282°
2026-05-04 08:11 -28.81423 -104.62122 36149 ft 402 kts 282°
2026-05-04 08:12 -28.74503 -104.86338 36156 ft 402 kts 282°
2026-05-04 08:12 -28.67542 -105.10542 36135 ft 403 kts 282°
2026-05-04 08:13 -28.60470 -105.34983 36179 ft 406 kts 282°
2026-05-04 08:13 -28.53365 -105.59322 36161 ft 405 kts 282°
2026-05-04 08:14 -28.46212 -105.83625 36166 ft 406 kts 282°
2026-05-04 08:16 -28.17444 -106.81197 36169 ft 411 kts 282°
2026-05-04 08:16 -28.10070 -107.05766 36180 ft 413 kts 283°
2026-05-04 08:17 -28.02635 -107.30389 36192 ft 414 kts 283°
2026-05-04 08:17 -27.97187 -107.48242 36182 ft 414 kts 283°
2026-05-04 08:19 -27.90607 -107.69691 33708 ft 406 kts 284°
2026-05-04 08:19 -27.89679 -107.72688 33270 ft 401 kts 284°
2026-05-04 08:20 -27.88767 -107.75657 32839 ft 398 kts 284°
2026-05-04 08:20 -27.87865 -107.78597 32406 ft 394 kts 284°
2026-05-04 08:20 -27.86969 -107.81513 31976 ft 391 kts 284°
2026-05-04 08:20 -27.86080 -107.84402 31555 ft 388 kts 285°
2026-05-04 08:21 -27.85195 -107.87270 31135 ft 385 kts 285°
2026-05-04 08:21 -27.84328 -107.90078 30733 ft 382 kts 285°
2026-05-04 08:21 -27.83445 -107.92940 30326 ft 380 kts 285°
2026-05-04 08:21 -27.82589 -107.95709 29878 ft 377 kts 285°
2026-05-04 08:22 -27.81731 -107.98492 29494 ft 373 kts 285°
2026-05-04 08:22 -27.80876 -108.01246 29120 ft 369 kts 285°
2026-05-04 08:24 -27.75093 -108.19854 26594 ft 347 kts 285°
2026-05-04 08:24 -27.74305 -108.22381 26245 ft 344 kts 285°
2026-05-04 08:24 -27.73512 -108.24915 25896 ft 340 kts 285°
2026-05-04 08:24 -27.72729 -108.27422 25532 ft 338 kts 285°
2026-05-04 08:25 -27.71951 -108.29915 25170 ft 335 kts 285°
2026-05-04 08:25 -27.71179 -108.32388 24807 ft 333 kts 285°
2026-05-04 08:25 -27.70411 -108.34845 24440 ft 331 kts 285°
2026-05-04 08:25 -27.69656 -108.37293 24073 ft 329 kts 285°
2026-05-04 08:26 -27.68910 -108.39731 23676 ft 329 kts 285°
2026-05-04 08:27 -27.63245 -108.56201 20979 ft 315 kts 288°
2026-05-04 08:28 -27.62433 -108.58493 20589 ft 314 kts 288°
2026-05-04 08:28 -27.61625 -108.60778 20224 ft 313 kts 288°
2026-05-04 08:28 -27.60819 -108.63059 19842 ft 312 kts 288°
2026-05-04 08:28 -27.60016 -108.65330 19475 ft 312 kts 288°
2026-05-04 08:29 -27.59213 -108.67601 19098 ft 311 kts 288°
2026-05-04 08:29 -27.58413 -108.69866 18722 ft 311 kts 288°
2026-05-04 08:29 -27.57612 -108.72135 18324 ft 311 kts 288°
2026-05-04 08:31 -27.52108 -108.87648 15726 ft 300 kts 288°
2026-05-04 08:33 -27.46711 -109.02783 13169 ft 293 kts 288°
2026-05-04 08:33 -27.45954 -109.04907 12817 ft 291 kts 288°
2026-05-04 08:35 -27.40766 -109.19395 10310 ft 283 kts 288°
2026-05-04 08:35 -27.40031 -109.21447 9851 ft 280 kts 289°
2026-05-04 08:35 -27.39308 -109.23463 9465 ft 274 kts 289°
2026-05-04 08:35 -27.38602 -109.25430 9130 ft 268 kts 288°
2026-05-04 08:37 -27.33570 -109.36537 7238 ft 268 kts 297°
2026-05-04 08:37 -27.32634 -109.38342 6927 ft 266 kts 297°
2026-05-04 08:37 -27.31707 -109.40135 6626 ft 265 kts 297°
2026-05-04 08:38 -27.30785 -109.41922 6301 ft 263 kts 297°
2026-05-04 08:38 -27.29870 -109.43699 6090 ft 262 kts 297°
2026-05-04 08:38 -27.28958 -109.45470 5920 ft 262 kts 297°
2026-05-04 08:40 -27.22670 -109.57829 4367 ft 260 kts 297°
2026-05-04 08:40 -27.21782 -109.59600 4120 ft 261 kts 296°
2026-05-04 08:40 -27.20874 -109.61369 3874 ft 262 kts 296°
2026-05-04 08:41 -27.19957 -109.63144 3631 ft 263 kts 297°
2026-05-04 08:41 -27.18906 -109.64830 3509 ft 268 kts 315°
2026-05-04 08:41 -27.17270 -109.65843 3489 ft 275 kts 343°
2026-05-04 08:41 -27.15373 -109.65933 3224 ft 273 kts
2026-05-04 08:42 -27.14141 -109.65700 2993 ft 272 kts 11°
2026-05-04 08:42 -27.11725 -109.65201 2782 ft 259 kts 12°
2026-05-04 08:42 -27.10544 -109.64962 2709 ft 250 kts 12°
2026-05-04 08:42 -27.08435 -109.64281 2553 ft 227 kts 34°
2026-05-04 08:43 -27.07436 -109.63054 2513 ft 204 kts 72°
2026-05-04 08:43 -27.07215 -109.61561 2517 ft 190 kts 99°
2026-05-04 08:43 -27.07429 -109.60614 2513 ft 184 kts 116°
2026-05-04 08:43 -27.08077 -109.59409 2506 ft 178 kts 136°
2026-05-04 08:44 -27.08882 -109.58343 2414 ft 179 kts 127°
2026-05-04 08:44 -27.09493 -109.57179 2260 ft 169 kts 123°
2026-05-04 08:46 -27.12792 -109.50208 1189 ft 132 kts 123°
2026-05-04 08:46 -27.13221 -109.49292 1042 ft 134 kts 122°
2026-05-04 08:46 -27.13652 -109.48372 904 ft 133 kts 124°
2026-05-04 08:46 -27.14080 -109.47457 776 ft 131 kts 121°
2026-05-04 08:47 -27.14501 -109.46558 624 ft 130 kts 120°
2026-05-04 08:47 -27.14927 -109.45637 498 ft 136 kts 117°
2026-05-04 08:47 -27.15335 -109.44681 381 ft 137 kts 120°
2026-05-04 08:47 -27.15775 -109.43721 238 ft 137 kts 119°
2026-05-04 08:48 -27.16190 -109.42822 158 ft 116 kts 118°
2026-05-04 08:48 -27.16489 -109.42168 158 ft 70 kts 117°
2026-05-04 08:48 -27.16635 -109.41849 159 ft 29 kts 117°
2026-05-04 08:48 -27.16713 -109.41682 159 ft 19 kts 116°
2026-05-04 08:49 -27.16767 -109.41563 158 ft 18 kts 118°
2026-05-04 08:50 -27.16695 -109.41710 159 ft 18 kts 297°
2026-05-04 08:50 -27.16634 -109.41846 159 ft 21 kts 296°
2026-05-04 08:51 -27.16563 -109.42002 159 ft 24 kts 297°
2026-05-04 08:51 -27.16483 -109.42175 158 ft 27 kts 297°
2026-05-04 08:51 -27.16395 -109.42368 156 ft 29 kts 297°
2026-05-04 08:51 -27.16298 -109.42575 156 ft 31 kts 297°
2026-05-04 08:52 -27.16203 -109.42787 157 ft 28 kts 297°
2026-05-04 08:52 -27.16153 -109.42885 158 ft 8 kts 321°
2026-05-04 08:52 -27.16096 -109.42867 155 ft 11 kts 27°
2026-05-04 08:52 -27.16040 -109.42881 151 ft 8 kts 301°
2026-05-04 08:53 -27.16028 -109.42915 151 ft 4 kts 292°
2026-05-04 08:54 -27.15970 -109.42942 149 ft 0 kts 11°